Powrót do katalogu

STARLINK-34491

AktywnyŁącznośćVLEO
NORAD 64780·PAYLOAD·🇺🇸 United States

Wystrzelony Jul 8, 2025 z Cape Canaveral Space Force Station

Loading…

Następne Przeloty (najbliższe 24 godziny)

TLE

ŚwieżeSource: CelesTrak SupGP

Epoka: Sep 15, 2026, 02:36 UTC

1 64780C 25147AB  26258.10881944 -.00020653  00000+0 -61042-3 0  2583
2 64780  53.1580  78.6328 0001225  85.6650 252.2778 15.34389865    19

Śledź STARLINK-34491 w czasie rzeczywistym z AllMySat

Download on the App Store